C/2014 W2 ( PanSTARRS )

Japanese version
Home page
Updated on January 17, 2017

---------------------------------------------------------------------

* Profile

Discovery Date November 17, 2014
Magnitude 18.8 mag
Discoverer Pan-STARRS 1 telescope (Haleakala)

* Pictures

* Orbital Elements

Epoch 2016 Feb. 22.0 TT = JDT 2457440.5
T 2016 Mar. 10.48389 TT                                 MPCW
q   2.6702040            (2000.0)            P               Q
z  +0.0006236      Peri.   85.00964     -0.10047098     -0.35270768
 +/-0.0000002      Node    69.96276     -0.27384055     -0.88913825
e   0.9983348      Incl.   81.99861     +0.95651290     -0.29159983
From 2966 observations 2014 Oct. 24-2016 Oct. 15, mean residual 0".4.

* Finding Charts

* Magnitudes Graph

        m1 = 4.0 + 5 log d + 14.0 log r

---------------------------------------------------------------------

The orbital elements are published on M.P.E.C. 2016-U66.
The charts are made with StellaNavigator Ver.8 (AstroArts).
The magnitudes graphs are made with Comet for Windows.

---------------------------------------------------------------------

Copyright(C) Seiichi Yoshida (comet@aerith.net). All rights reserved.